Flag for U.S.A. Weather past 2 weeks in Olympia, Washington, U.S.A.

Now
61 °F

Overcast.


Feels Like: 61 °F
Forecast: 56 / 63 °F
Wind: 7 mph from South

Location: Olympia Airport

Current Time: Sep 1, 2015 at 4:05:58 AM

Latest Report: Sep 1, 2015 at 2:54 AM


Visibility: 10 mi

Pressure: 29.90 "Hg

Humidity: 78%

Dew point: 54 °F

Location of OlympiaLocation

Historic Weather in Olympia — Graph

°F

Olympia temperature yesterday

Maximum temperature yesterday: 67 °F (at 4:54 PM)
Minimum temperature yesterday: 59 °F (at 9:54 AM)
Average temperature yesterday: 62 °F

Past Weeks' High & Low Weather Summary

 TemperatureHumidityPressure
High91 °F (Aug 19, 3:54 PM)97% (Aug 17, 4:54 AM)30.15 "Hg (Aug 17, 4:54 AM)
Low42 °F (Aug 25, 4:54 AM)21% (Aug 27, 3:54 PM)29.54 "Hg (Aug 29, 6:54 AM)
Average65 °F65%29.96 "Hg
* Reported Aug 17 2:54 AM — Sep 1 2:54 AM, Olympia, Weather by CustomWeather, © 2015

Note: Actual official high and low records may vary slightly from our data, if they occured in-between our weather recording intervals... More about our weather records

Advertising

Olympia weather history for previous 24 hours

 ConditionsComfort  
Time TempWeatherWind HumidityBarometerVisibility
2:54 AM
Tue, Sep 1
61 °FOvercast.7 mph78%29.90 "Hg10 mi
1:54 AM61 °FOvercast.8 mph78%29.90 "Hg10 mi
12:54 AM62 °FOvercast.8 mph75%29.91 "Hg10 mi
11:54 PM
Mon, Aug 31
62 °FMostly cloudy.7 mph73%29.92 "Hg10 mi
10:54 PM62 °FOvercast.9 mph73%29.92 "Hg10 mi
9:54 PM62 °FMostly cloudy.8 mph75%29.93 "Hg10 mi
8:54 PM63 °FMostly cloudy.7 mph73%29.93 "Hg10 mi
7:54 PM64 °FOvercast.8 mph70%29.93 "Hg10 mi
6:54 PM66 °FScattered clouds.9 mph63%29.91 "Hg10 mi
5:54 PM67 °FBroken clouds.15 mph61%29.93 "Hg10 mi
4:54 PM67 °FBroken clouds.7 mph68%29.94 "Hg10 mi
3:54 PM66 °FCloudy.8 mph78%29.95 "Hg10 mi
2:54 PM63 °FLight rain. Cloudy.9 mph87%29.97 "Hg10 mi
1:54 PM63 °FMostly cloudy.14 mph84%29.99 "Hg10 mi
12:54 PM62 °FBroken clouds.14 mph86%29.99 "Hg10 mi
11:54 AM60 °FLight rain. Fog.10 mph93%30.00 "Hg3 mi
10:54 AM60 °FMostly cloudy.10 mph90%30.00 "Hg10 mi
9:54 AM59 °FLight rain. Fog.7 mph87%30.00 "Hg3 mi
8:54 AM61 °FLight rain. Overcast.12 mph72%29.98 "Hg10 mi
7:54 AM60 °FOvercast.12 mph75%29.98 "Hg10 mi
7:02 AM60 °FOvercast.13 mph72%29.98 "Hg9 mi
5:54 AM61 °FOvercast.8 mph67%29.97 "Hg10 mi
4:54 AM61 °FOvercast.12 mph67%29.97 "Hg10 mi
Weather by CustomWeather, © 2015

See weather overviewHow to use our weather pages